Home > Time Zones > World Clock > Weather > China > Wuhan > Past weeks

Flag for China Weather past 2 weeks in Wuhan, Hubei, China

Now
81 °F

Clear.


Feels Like: 86 °F
Forecast: 78 / 93 °F
Wind: 6 mph from Northeast

Location: Wuhan Airport

Current Time: Jul 3, 2015 at 3:09:25 AM

Latest Report: Jul 3, 2015 at 2:00 AM


Visibility: 10 mi

Pressure: 29.59 "Hg

Humidity: 84%

Dew point: 75 °F

Location of WuhanLocation

Historic Weather in Wuhan — Graph

°F

Wuhan temperature yesterday

Maximum temperature yesterday: 91 °F (at 4:00 PM)
Minimum temperature yesterday: 77 °F (at 6:00 AM)
Average temperature yesterday: 84 °F

Past Weeks' High & Low Weather Summary

 TemperatureHumidityPressure
High97 °F (Jun 29, 3:00 PM)100% (Jun 18, 3:00 AM)29.80 "Hg (Jun 18, 3:00 AM)
Low70 °F (Jun 18, 3:00 AM)52% (Jun 18, 4:00 PM)29.47 "Hg (Jun 26, 4:00 PM)
Average81 °F82%29.62 "Hg
* Reported Jun 18 2:00 AM — Jul 3 2:00 AM, Wuhan, Weather by CustomWeather, © 2015

Note: Actual official high and low records may vary slightly from our data, if they occured in-between our weather recording intervals... More about our weather records

Advertising

Wuhan weather history for previous 24 hours

 ConditionsComfort  
Time TempWeatherWind HumidityBarometerVisibility
2:00 AM
Fri, Jul 3
81 °FClear.6 mph84%29.59 "Hg10 mi
1:00 AM81 °FClear.3 mph84%29.59 "Hg10 mi
12:00 AM81 °FClear.3 mph84%29.59 "Hg10 mi
11:00 PM
Thu, Jul 2
82 °FClear.1 mph84%29.59 "Hg10 mi
10:00 PM84 °FClear.3 mph70%29.59 "Hg10 mi
9:00 PM84 °FClear.No wind74%29.59 "Hg10 mi
8:00 PM84 °FPassing clouds.3 mph70%29.56 "HgN/A
7:00 PM88 °FPassing clouds.6 mph59%29.56 "HgN/A
6:00 PM90 °FPassing clouds.6 mph59%29.53 "HgN/A
5:00 PM90 °FPassing clouds.3 mph59%29.53 "HgN/A
4:00 PM91 °FClear.6 mph52%29.53 "Hg4 mi
3:00 PM90 °FClear.3 mph63%29.56 "Hg4 mi
2:00 PM90 °FScattered clouds.3 mph63%29.56 "Hg4 mi
1:00 PM88 °FScattered clouds.3 mph70%29.56 "Hg4 mi
12:00 PM88 °FScattered clouds.3 mph75%29.59 "Hg3 mi
11:00 AM86 °FHaze.3 mph70%29.59 "Hg3 mi
10:00 AM84 °FFog.No wind79%29.59 "Hg3 mi
9:00 AM82 °FFog.1 mph84%29.59 "Hg2 mi
8:00 AM82 °FFog.1 mph84%29.59 "Hg2 mi
7:00 AM79 °FFog.No wind100%29.56 "Hg2 mi
6:00 AM77 °FFog.No wind94%29.53 "Hg2 mi
5:00 AM79 °FFog.No wind94%29.53 "Hg3 mi
4:00 AM79 °FClear.No wind89%29.53 "Hg4 mi
3:00 AM79 °FClear.No wind94%29.53 "Hg4 mi
Weather by CustomWeather, © 2015

See weather overviewHow to use our weather pages